| time (UTC) | temp C | wind direction | speed KPH | gust KPH | rain 1hr cm | rain 24hr cm | rain mn cm | humidity % | barometer mb |
| 20260901174556 | 18 | 243 | 4.8 | 20.9 | 0.00 | 0.00 | 0.00 | 88 | 1013.5 |
| 20260901173039 | 17 | 199 | 8.0 | 17.7 | 0.00 | 0.00 | 0.00 | 91 | 1013.4 |
| 20260901171539 | 17 | 212 | 9.7 | 16.1 | 0.00 | 0.00 | 0.00 | 91 | 1013.4 |
| 20260901170112 | 17 | 206 | 9.7 | 19.3 | 0.00 | 0.00 | 0.00 | 90 | 1013.4 |
| 20260901164537 | 17 | 204 | 4.8 | 9.7 | 0.00 | 0.00 | 0.00 | 91 | 1013.3 |
| 20260901163034 | 17 | 225 | 0.0 | 3.2 | 0.00 | 0.00 | 0.00 | 93 | 1013.2 |
| 20260901161531 | 16 | 176 | 3.2 | 9.7 | 0.00 | 0.00 | 0.00 | 93 | 1013.3 |
| 20260901160034 | 16 | 171 | 1.6 | 4.8 | 0.00 | 0.00 | 0.00 | 96 | 1013.3 |
| 20260901154525 | 15 | 178 | 0.0 | 4.8 | 0.00 | 0.00 | 0.00 | 97 | 1013.4 |
| 20260901153023 | 15 | 178 | 1.6 | 4.8 | 0.00 | 0.00 | 0.00 | 97 | 1013.3 |
| 20260901151523 | 15 | 176 | 1.6 | 6.4 | 0.00 | 0.00 | 0.00 | 98 | 1013.4 |
| 20260901150022 | 15 | 171 | 0.0 | 3.2 | 0.00 | 0.00 | 0.00 | 100 | 1013.2 |
| 20260901144521 | 15 | 174 | 0.0 | 4.8 | 0.00 | 0.00 | 0.00 | 100 | 1013.1 |
| 20260901143020 | 14 | 175 | 3.2 | 8.0 | 0.00 | 0.00 | 0.00 | 100 | 1013.3 |
| 20260901141519 | 14 | 182 | 1.6 | 6.4 | 0.00 | 0.00 | 0.00 | 100 | 1013.2 |
| 20260901140022 | 14 | 180 | 0.0 | 6.4 | 0.00 | 0.00 | 0.00 | 100 | 1013.1 |
| 20260901134518 | 13 | 176 | 0.0 | 3.2 | 0.00 | 0.00 | 0.00 | 100 | 1013.0 |
| 20260901133016 | 13 | 176 | 0.0 | 1.6 | 0.00 | 0.00 | 0.00 | 100 | 1013.1 |
| 20260901131523 | 13 | 176 | 0.0 | 1.6 | 0.00 | 0.00 | 0.00 | 100 | 1013.0 |
| 20260901130014 | 14 | 176 | 0.0 | 1.6 | 0.00 | 0.00 | 0.00 | 100 | 1013.0 |
| 20260901124514 | 14 | 176 | 0.0 | 3.2 | 0.00 | 0.00 | 0.00 | 100 | 1013.1 |
| 20260901123012 | 14 | 176 | 3.2 | 6.4 | 0.00 | 0.00 | 0.00 | 100 | 1013.2 |
| 20260901121511 | 14 | 191 | 3.2 | 6.4 | 0.00 | 0.00 | 0.00 | 100 | 1013.2 |
| 20260901120010 | 14 | 182 | 1.6 | 9.7 | 0.00 | 0.00 | 0.00 | 100 | 1013.2 |
| 20260901114510 | 14 | 180 | 3.2 | 9.7 | 0.00 | 0.00 | 0.00 | 100 | 1013.2 |
| 20260901113009 | 14 | 203 | 1.6 | 9.7 | 0.00 | 0.00 | 0.00 | 100 | 1013.2 |
| 20260901111507 | 14 | 207 | 1.6 | 6.4 | 0.00 | 0.00 | 0.00 | 99 | 1013.2 |
| 20260901110005 | 15 | 211 | 0.0 | 4.8 | 0.00 | 0.00 | 0.00 | 99 | 1013.1 |
| 20260901104504 | 15 | 211 | 1.6 | 6.4 | 0.00 | 0.00 | 0.00 | 99 | 1012.9 |
| 20260901103002 | 15 | 211 | 3.2 | 8.0 | 0.00 | 0.00 | 0.00 | 98 | 1012.9 |
| 20260901101502 | 15 | 219 | 1.6 | 6.4 | 0.00 | 0.00 | 0.00 | 97 | 1012.9 |
| 20260901100110 | 15 | 182 | 1.6 | 9.7 | 0.00 | 0.00 | 0.00 | 97 | 1012.9 |
| 20260901094603 | 15 | 178 | 1.6 | 9.7 | 0.00 | 0.00 | 0.00 | 96 | 1012.8 |
| 20260901093057 | 15 | 189 | 1.6 | 6.4 | 0.00 | 0.00 | 0.00 | 96 | 1012.8 |
| 20260901091557 | 15 | 185 | 1.6 | 11.3 | 0.00 | 0.00 | 0.00 | 96 | 1012.9 |
| 20260901084607 | 15 | 182 | 4.8 | 11.3 | 0.00 | 0.00 | 0.00 | 96 | 1013.0 |
| 20260901083052 | 15 | 190 | 3.2 | 14.5 | 0.00 | 0.00 | 0.00 | 96 | 1013.0 |
| 20260901081550 | 15 | 199 | 3.2 | 11.3 | 0.00 | 0.00 | 0.00 | 96 | 1013.0 |
| 20260901080051 | 15 | 210 | 6.4 | 14.5 | 0.00 | 0.00 | 0.00 | 96 | 1013.1 |
| 20260901074547 | 15 | 209 | 3.2 | 11.3 | 0.00 | 0.00 | 0.00 | 97 | 1013.0 |
| 20260901073045 | 15 | 209 | 4.8 | 9.7 | 0.00 | 0.00 | 0.00 | 97 | 1012.8 |
| 20260901071545 | 15 | 212 | 3.2 | 9.7 | 0.00 | 0.00 | 0.00 | 97 | 1012.7 |
| 20260901070042 | 15 | 206 | 1.6 | 6.4 | 0.00 | 0.00 | 0.00 | 97 | 1012.6 |
| 20260901064541 | 15 | 203 | 3.2 | 12.9 | 0.00 | 0.00 | 0.00 | 97 | 1012.8 |
| 20260901063040 | 15 | 203 | 1.6 | 6.4 | 0.00 | 0.00 | 0.00 | 98 | 1012.7 |
| 20260901061548 | 15 | 211 | 1.6 | 4.8 | 0.00 | 0.00 | 0.00 | 98 | 1012.8 |
| 20260901060046 | 15 | 203 | 3.2 | 11.3 | 0.00 | 0.00 | 0.00 | 98 | 1012.8 |
| 20260901054538 | 15 | 232 | 4.8 | 11.3 | 0.00 | 0.00 | 0.00 | 98 | 1012.7 |
| 20260901053047 | 15 | 212 | 4.8 | 11.3 | 0.00 | 0.00 | 0.00 | 98 | 1012.7 |
| 20260901051540 | 15 | 204 | 3.2 | 9.7 | 0.00 | 0.00 | 0.00 | 98 | 1012.6 |
| 20260901050040 | 15 | 208 | 1.6 | 11.3 | 0.00 | 0.00 | 0.00 | 98 | 1012.7 |
| 20260901044536 | 15 | 216 | 4.8 | 11.3 | 0.00 | 0.00 | 0.00 | 98 | 1012.8 |
| 20260901043036 | 15 | 201 | 1.6 | 6.4 | 0.00 | 0.00 | 0.00 | 98 | 1012.6 |
| 20260901041535 | 15 | 198 | 1.6 | 6.4 | 0.00 | 0.00 | 0.00 | 98 | 1012.5 |
| 20260901040037 | 15 | 210 | 0.0 | 4.8 | 0.00 | 0.00 | 0.00 | 97 | 1012.3 |
| 20260901034536 | 15 | 213 | 0.0 | 4.8 | 0.00 | 0.00 | 0.00 | 97 | 1012.1 |
| 20260901033034 | 15 | 204 | 1.6 | 6.4 | 0.00 | 0.00 | 0.00 | 97 | 1012.1 |
| 20260901031547 | 15 | 204 | 0.0 | 4.8 | 0.00 | 0.00 | 0.00 | 97 | 1011.9 |
| 20260901030033 | 16 | 215 | 0.0 | 1.6 | 0.00 | 0.00 | 0.00 | 96 | 1011.9 |
| 20260901024533 | 16 | 207 | 1.6 | 6.4 | 0.00 | 0.00 | 0.00 | 96 | 1012.0 |
| 20260901023037 | 16 | 213 | 3.2 | 12.9 | 0.00 | 0.00 | 0.00 | 95 | 1012.1 |
| 20260901021531 | 16 | 257 | 1.6 | 9.7 | 0.00 | 0.00 | 0.00 | 93 | 1012.1 |
| 20260901020031 | 17 | 211 | 4.8 | 11.3 | 0.00 | 0.00 | 0.00 | 92 | 1012.1 |
| 20260901014531 | 18 | 201 | 3.2 | 11.3 | 0.00 | 0.00 | 0.00 | 88 | 1012.0 |
| 20260901013032 | 20 | 201 | 3.2 | 14.5 | 0.00 | 0.00 | 0.00 | 82 | 1011.9 |
| 20260901011528 | 20 | 234 | 0.0 | 4.8 | 0.00 | 0.00 | 0.00 | 82 | 1011.8 |
| 20260901010035 | 20 | 280 | 3.2 | 12.9 | 0.00 | 0.00 | 0.00 | 81 | 1011.6 |
| 20260901004527 | 20 | 275 | 3.2 | 12.9 | 0.00 | 0.00 | 0.00 | 76 | 1011.5 |
| 20260901003025 | 20 | 298 | 4.8 | 12.9 | 0.00 | 0.00 | 0.00 | 76 | 1011.4 |
| 20260901001525 | 21 | 288 | 6.4 | 14.5 | 0.00 | 0.00 | 0.00 | 75 | 1011.3 |
| 20260901000022 | 22 | 302 | 6.4 | 11.3 | 0.00 | 0.00 | 0.00 | 75 | 1011.4 |
| 20260831234620 | 22 | 295 | 6.4 | 12.9 | 0.00 | 0.00 | 0.00 | 75 | 1011.1 |
| 20260831233018 | 22 | 309 | 4.8 | 12.9 | 0.00 | 0.00 | 0.00 | 74 | 1011.1 |
| 20260831231517 | 22 | 326 | 6.4 | 14.5 | 0.00 | 0.00 | 0.00 | 75 | 1011.3 |
| 20260831230016 | 22 | 326 | 9.7 | 16.1 | 0.00 | 0.00 | 0.00 | 74 | 1011.1 |
| 20260831224514 | 22 | 344 | 4.8 | 17.7 | 0.00 | 0.00 | 0.00 | 74 | 1011.1 |
| 20260831223018 | 23 | 330 | 8.0 | 12.9 | 0.00 | 0.00 | 0.00 | 71 | 1011.0 |
| 20260831221522 | 23 | 26 | 6.4 | 16.1 | 0.00 | 0.00 | 0.00 | 71 | 1010.9 |
| 20260831220010 | 23 | 311 | 11.3 | 16.1 | 0.00 | 0.00 | 0.00 | 69 | 1010.9 |
| 20260831214506 | 24 | 5 | 3.2 | 14.5 | 0.00 | 0.00 | 0.00 | 67 | 1011.1 |
| 20260831213003 | 24 | 16 | 3.2 | 8.0 | 0.00 | 0.00 | 0.00 | 64 | 1011.4 |
| 20260831211614 | 24 | 12 | 1.6 | 9.7 | 0.00 | 0.00 | 0.00 | 64 | 1011.4 |
| 20260831210057 | 23 | 359 | 4.8 | 12.9 | 0.00 | 0.00 | 0.00 | 67 | 1011.5 |
| 20260831204556 | 23 | 282 | 0.0 | 12.9 | 0.00 | 0.00 | 0.00 | 67 | 1011.5 |
| 20260831203052 | 23 | 333 | 0.0 | 14.5 | 0.00 | 0.00 | 0.00 | 66 | 1011.7 |
| 20260831201553 | 22 | 317 | 3.2 | 12.9 | 0.00 | 0.00 | 0.00 | 69 | 1012.0 |
| 20260831200045 | 22 | 316 | 4.8 | 16.1 | 0.00 | 0.00 | 0.00 | 71 | 1012.1 |
| 20260831194618 | 21 | 12 | 6.4 | 16.1 | 0.00 | 0.00 | 0.00 | 69 | 1012.2 |
| 20260831193042 | 21 | 347 | 3.2 | 16.1 | 0.00 | 0.00 | 0.00 | 70 | 1012.2 |
| 20260831191539 | 21 | 11 | 4.8 | 19.3 | 0.00 | 0.00 | 0.00 | 72 | 1012.5 |
| 20260831190040 | 21 | 7 | 4.8 | 11.3 | 0.00 | 0.00 | 0.00 | 73 | 1012.7 |
| 20260831184544 | 21 | 322 | 3.2 | 11.3 | 0.00 | 0.00 | 0.00 | 71 | 1012.9 |
| 20260831183034 | 21 | 19 | 0.0 | 1.6 | 0.00 | 0.00 | 0.00 | 72 | 1013.0 |
| 20260831181533 | 21 | 6 | 3.2 | 12.9 | 0.00 | 0.00 | 0.00 | 70 | 1013.2 |
| 20260831180029 | 20 | 46 | 0.0 | 12.9 | 0.00 | 0.00 | 0.00 | 73 | 1013.2 |